www.pogodaiklimat.ru

Погода и климат >> Архив погоды >> Индия >> Machilipatnam


ПОГОДА в Machilipatnam

  • Прогноз погоды в Machilipatnam
  • Монитор погоды в Machilipatnam
  • Климат города

АРХИВ ПОГОДЫ в Machilipatnam

Время (UTC), дата Ветер
(напр.,м/с)
 
Видим.   Явления Облачность Т
(С)
Тd
(С)
f
(%)
Тe
(С)
Тes
(С)
Комфортность P
(гПа)
Po
(гПа)
Тmin
(С)
Tmax
(С)
R
(мм)
R24
(мм)
S
(см)
06 14.05 Ю 7 10 км 8/8 600 м
[Cu Sc]
+36.4 +25.2 53 +50 +52 опасность
перегрева
1009.6 1009.3
09 14.05 ЮВ 6 10 км 6/3 600 м
[Sc Ci sp]
+34.6 +24.7 57 +48 +51 опасность
перегрева
1006.5 1006.2
12 14.05 Ю 4 10 км 8/3 600 м
[Sc Ac trans Ci fib]
+32.0 +25.2 67 +46 +46 опасность
перегрева
1005.6 1005.3 +36.3
15 14.05 Ю 3 4000 м 6/4 600 м
[Sc Ac trans]
+30.6 +25.8 76 +46 +46 опасность
перегрева
1008.7 1008.4
18 14.05 Ю 2 4000 м 6/4 600 м
[Sc Ac trans]
+30.0 +26.1 80 +45 +45 опасность
перегрева
1007.6 1007.3
21 14.05 СЗ 1 4000 м 5/3 600 м
[Sc Ac trans]
+30.0 +25.2 76 +44 +44 опасность
перегрева
1007.6 1007.3
00 15.05 Ю 2 4000 м гроза без осадков 8/5 600 м
[Cb cap Ac trans]
+27.6 +21.6 70 +35 +35 очень
душно
1007.4 1007.1
03 15.05 С 1 10 км {гроза} 9/3 600 м
[Sc Ac trans Ci fib]
+30.8 +23.3 64 +41 +45 опасность
перегрева
1009.1 1008.8 +27.1 +36.3
06 15.05 ЮВ 2 10 км {гроза} 8/3 600 м
[Sc Ac trans Ci sp]
+34.4 +23.2 52 +45 +54 опасность
перегрева
1008.1 1007.8
09 15.05 Ю 5 10 км 6/3 600 м
[Sc Ac trans]
+35.0 +24.5 55 +48 +52 опасность
перегрева
1005.2 1004.9
12 15.05 Ю 3 10 км 6/3 600 м
[Sc Ac trans]
+32.6 +25.9 68 +48 +49 опасность
перегрева
1004.1 1003.8 +36.0
15 15.05 Ю 4 4000 м 5/3 600 м
[Sc Ac trans]
+30.4 +24.7 72 +43 +43 опасность
перегрева
1005.8 1005.5
18 15.05 Ю 4 4000 м 5/3 600 м
[Sc Ac trans]
+30.0 +25.8 78 +45 +45 опасность
перегрева
1005.8 1005.5
21 15.05 Ю 2 4000 м 4/1 600 м
[Sc Ac trans]
+29.2 +26.1 83 +44 +44 опасность
перегрева
1004.9 1004.6
00 16.05 Ю 2 4000 м 4/3 600 м
[Cu Sc Ac trans]
+28.8 +25.7 83 +43 +43 опасность
перегрева
1005.1 1004.8
03 16.05 Ю 2 10 км 6/4 600 м
[Sc Ac trans]
+32.4 +26.3 70 +49 +53 опасность
перегрева
1006.2 1005.9 +28.4 +36.0
06 16.05 Ю 3 10 км 8/4 600 м
[Sc Ac trans]
+35.8 +25.8 56 +51 +57 опасность
перегрева
1006.4 1006.1
09 16.05 Ю 7 10 км 5/3 600 м
[Sc Ac trans]
+35.4 +25.3 56 +49 +52 опасность
перегрева
1004.8 1004.5
12 16.05 Ю 3 10 км 5/3 600 м
[Sc Ac trans]
+32.0 +24.9 66 +45 +46 опасность
перегрева
1003.3 1003.0 +36.4
15 16.05 Ю 6 10 км 4/3 600 м
[Sc Ac trans]
+30.4 +25.9 77 +45 +45 опасность
перегрева
1005.2 1004.9
18 16.05 Ю 5 4000 м 3/3 600 м
[Sc]
+30.0 +25.8 78 +45 +45 опасность
перегрева
1005.7 1005.4
21 16.05 Ю 2 4000 м 3/1 600 м
[Sc Ac trans]
+29.2 +25.8 82 +44 +44 опасность
перегрева
1004.6 1004.3
00 17.05 штиль 0 4000 м 6/3 600 м
[Sc Ac trans Ci sp]
+28.6 +26.1 86 +43 +43 опасность
перегрева
1005.1 1004.8
03 17.05 штиль 0 10 км 8/8 600 м
[Cu Sc]
+32.6 +25.6 67 +48 +50 опасность
перегрева
1006.6 1006.3 +28.3 +36.4
06 17.05 Ю 5 10 км 5/5 600 м
[Cu Sc]
+35.2 +24.5 54 +48 +53 опасность
перегрева
1007.2 1006.9
09 17.05 Ю 4 10 км 5/4 600 м
[Sc Ac trans]
+35.6 +23.9 51 +47 +52 опасность
перегрева
1004.9 1004.6
12 17.05 Ю 5 10 км 5/3 600 м
[Sc Ci fib]
+32.4 +25.1 65 +46 +46 опасность
перегрева
1003.4 1003.1 +36.0
15 17.05 Ю 2 4000 м 3/3 600 м
[Sc]
+30.8 +25.7 74 +45 +45 опасность
перегрева
1005.2 1004.9
18 17.05 Ю 2 4000 м ясно +30.0 +25.8 78 +45 +45 опасность
перегрева
1005.1 1004.8
21 17.05 Ю 2 4000 м ясно +29.2 +26.1 83 +44 +44 опасность
перегрева
1004.5 1004.2
00 18.05 штиль 0 4000 м 6/6 600 м
[Cu Sc]
+28.6 +26.1 86 +43 +43 опасность
перегрева
1005.5 1005.2
03 18.05 Ю 2 10 км 5/5 600 м
[Cu Sc]
+32.6 +25.3 66 +47 +52 опасность
перегрева
1006.3 1006.0 +28.6 +36.0
06 18.05 Ю 4 10 км 8/8 600 м
[Cu Sc]
+35.6 +25.9 57 +51 +53 опасность
перегрева
1006.0 1005.7
09 18.05 Ю 6 10 км 4/3 600 м
[Sc Ac trans]
+35.4 +25.6 57 +50 +54 опасность
перегрева
1003.8 1003.5
12 18.05 ЮВ 3 10 км 3/1 600 м
[Sc Ac trans]
+33.0 +25.7 66 +48 +49 опасность
перегрева
1002.2 1001.9 +37.0
15 18.05 Ю 4 4000 м 3/1 600 м
[Sc Ac trans]
+31.0 +26.3 76 +47 +47 опасность
перегрева
1004.3 1004.0
18 18.05 Ю 5 4000 м 1/1 600 м
[Sc]
+30.6 +26.1 77 +46 +46 опасность
перегрева
1004.3 1004.0
21 18.05 Ю 3 4000 м 1/1 600 м
[Sc]
+30.0 +26.7 83 +47 +47 опасность
перегрева
1003.3 1003.0
00 19.05 Ю 2 4000 м 5/4 600 м
[Sc Ac trans]
+29.6 +26.5 83 +45 +45 опасность
перегрева
1004.2 1003.9
03 19.05 Ю 2 10 км 8/3 600 м
[Sc Ac trans Ci sp]
+32.4 +26.3 70 +49 +52 опасность
перегрева
1006.0 1005.7 +29.6 +37.0
06 19.05 Ю 5 10 км 5/3 600 м
[Sc Ac trans Ci sp]
+37.8 +24.9 48 +51 +58 опасность
перегрева
1004.6 1004.3
09 19.05 ЮВ 7 10 км 1/1 600 м
[Sc]
+34.8 +25.3 58 +49 +53 опасность
перегрева
1002.7 1002.4
12 19.05 Ю 5 10 км ясно +32.8 +24.9 63 +46 +47 опасность
перегрева
1001.4 1001.1 +38.6
15 19.05 Ю 3 4000 м 3/3 600 м
[Sc]
+31.4 +25.8 72 +46 +46 опасность
перегрева
1004.3 1004.0
18 19.05 Ю 3 4000 м 4/4 600 м
[Sc]
+30.6 +26.7 80 +48 +48 опасность
перегрева
1004.8 1004.5
21 19.05 Ю 2 4000 м 3/3 600 м
[Sc]
+30.0 +25.8 78 +45 +45 опасность
перегрева
1003.7 1003.4
00 20.05 штиль 0 4000 м 1/1 750 м
[Cu hum]
+29.4 +26.3 83 +45 +45 опасность
перегрева
1004.3 1004.0
03 20.05 Ю 3 10 км 1/1 600 м
[Sc]
+33.0 +26.0 67 +49 +55 опасность
перегрева
1005.3 1005.0 +29.0 +38.6
06 20.05 Ю 3 10 км 4/4 600 м
[Sc]
+35.4 +26.6 61 +53 +63 опасность
перегрева
1005.7 1005.4
09 20.05 Ю 3 10 км 3/1 600 м
[Sc Ac trans]
+35.4 +24.7 54 +48 +58 опасность
перегрева
1003.9 1003.6
12 20.05 Ю 4 10 км 3/3 600 м
[Sc]
+32.6 +24.7 63 +46 +46 опасность
перегрева
1002.3 1002.0 +35.6
15 20.05 ЮВ 5 4000 м 5/3 600 м
[Sc Ac trans Ci sp]
+31.2 +25.9 73 +46 +46 опасность
перегрева
1004.2 1003.9
18 20.05 Ю 4 4000 м 4/1 600 м
[Sc Ci sp]
+30.4 +26.2 78 +46 +46 опасность
перегрева
1005.2 1004.9
21 20.05 Ю 3 4000 м 3/1 600 м
[Sc Ac trans]
+30.0 +25.8 78 +45 +45 опасность
перегрева
1004.0 1003.7
00 21.05 ЮВ 2 4000 м 5/4 600 м
[Sc Ac trans]
+29.6 +25.7 80 +44 +44 опасность
перегрева
1004.8 1004.5

 

Местоположение метеостанции Machilipatnam (Andhra Pradesh, Индия): широта 16.20 долгота 81.15 высота над уровнем моря 3 м.

В архиве по умолчанию представлена погода в Machilipatnam за последнюю неделю. Архивные данные за месяц целиком и за предыдущие месяцы, начиная с января 2011 года, Вы можете получить, выбрав интересующий диапазон дат из раскрывающегося списка и нажав кнопку "Ввод!".


*Определитесь, кто Вы:
робот инопланетянин человек

Внимание! Время в таблицах - всемирное. Для получения местного времени необходимо прибавить поправку, которая в Machilipatnam равна 5.5 ч.

Смотрите также архив погоды в соседних городах и на ближайших метеорологических станциях:

Погода в Gannavaram (Andhra Pradesh, Индия) (52 км)
Погода в Narsapur (Andhra Pradesh, Индия) (64 км)
Погода в Bapatla (Andhra Pradesh, Индия) (80 км)
Погода в Nandigama (Andhra Pradesh, Индия) (113 км)
Погода в Ongole (Andhra Pradesh, Индия) (140 км)
Погода в Kakinada (Andhra Pradesh, Индия) (142 км)
Погода в Khammam (Telangana, Индия) (158 км)
Погода в Bhadrachalam (Telangana, Индия) (166 км)
Погода в Rentachintala (Andhra Pradesh, Индия) (175 км)
Погода в Kavali (Andhra Pradesh, Индия) (191 км)

Пояснения к столбцам:

Ветер - указаны скорость ветра в м/с - средняя за 10 мин, порывы в срок и между сроками (в фигурных скобках) и направление, откуда дует ветер: С - северный, СВ - северо-восточный, В - восточный, ЮВ - юго-восточный, Ю - южный, ЮЗ - юго-западный, З - западный, СЗ - северо-западный.
Видимость - горизонтальная дальность видимости в метрах или километрах. При видимости от 1 до 10 км при отсутствии осадков обычно наблюдается дымка, при ухудшении видимости до 1 км и менее - туман. В сухую погоду видимость может ухудшаться дымом, пылью или мглою.
Явления - указаны атмосферные явления, наблюдавшиеся в срок или в последний час перед сроком; фигурными скобками обозначены явления, наблюдавшиеся между сроками (за 1-3 часа до срока); квадратными скобками обозначены град или гололедные отложения с указанием их диаметра в мм.
Облачность - указаны через наклонную черту общая и нижняя облачность в баллах и высота нижней границы облаков в метрах; квадратными скобками обозначены формы облаков: Ci - перистые, Cs - перисто-слоистые, Cc - перисто-кучевые, Ac - высококучевые, As - высокослоистые, Sc - слоисто-кучевые, Ns - слоисто-дождевые, Cu - кучевые, Cb - кучево-дождевые. Подробнее классификацию облаков см. в Атласе облаков (PDF).
T - Температура воздуха - температура, измеренная на высоте 2 м над землей.
Td - Температура точки росы - температура, при понижении до которой содержащийся в воздухе водяной пар достигнет насыщения.
f - Относительная влажность воздуха - влажноcть воздуха, измеренная на высоте 2 м над землей.
Te - Эффективная температура - температура, которую ощущает одетый по сезону человек в тени. Характеристика душности погоды. При расчете учитывается влияние влажности воздуха и скорости ветра на теплоощущения человека.
Tes - Эффективная температура на солнце - температура, которую ощущает человек, с поправкой на солнечный нагрев. Характеристика знойности погоды. Зависит от высоты солнца над горизонтом, облачности и скорости ветра. Ночью, в пасмурную погоду, а также при ветре 12 м/с и более поправка равна нулю.
P - Атмосферное давление - приведенное к уровню моря атмосферное давление.
Po - Атмосферное давление - измеренное на уровне метеостанции атмосферное давление.
Tmin - Минимальная температура - минимум температуры воздуха на высоте 2 м над землей.
Tmax - Максимальная температура - максимум температуры воздуха на высоте 2 м над землей.
R - Количество осадков - Количество выпавших осадков за период времени, мм. При наведении курсора мыши на число - период времени, за который выпало указанное количество осадков.
R24 - Количество осадков - Количество выпавших осадков за 24 часа, мм.
S - Снежный покров - Высота снежного покрова, см. При наведении курсора мыши на число - состояние снежного покрова и степень покрытия местности в баллах.